Rexburg, ID

3:42 AM MDT on September 23, 2019 (GMT -0600)
Rexburg-Madison County

Weather History for KRXE - August, 2019

Change the Weather History Date:

Saturday, August 24, 2019

  Actual Average Record
Temperature  
Mean Temperature 68 °F 64 °F  
Max Temperature 86 °F 82 °F 93 °F (2011)
Min Temperature 50 °F 47 °F 38 °F (2010)
Degree Days  
Heating Degree Days 0 2  
Month to date heating degree days 8 21  
Since 1 June heating degree days 166 223  
Since 1 July heating degree days 16 51  
Cooling Degree Days 3 2  
Month to date cooling degree days 117 78  
Year to date cooling degree days 283 192  
Since 1 June cooling degree days 283 188  
Growing Degree Days 18 (Base 50)    
Moisture  
Dew Point 40 °F    
Average Humidity 48    
Maximum Humidity 77    
Minimum Humidity 18    
Precipitation  
Precipitation 0.00 in 0.04 in 0.10 in (2013)
Month to date precipitation 0.39 0.69  
Year to date precipitation 8.69 8.65  
Sea Level Pressure  
Sea Level Pressure 29.88 in    
Wind  
Wind Speed 8 mph (SSW)    
Max Wind Speed 20 mph    
Max Gust Speed 27 mph    
Visibility 10 miles    
Events      
T = Trace of Precipitation, MM = Missing Value Source: NWS Daily Summary

Daily Weather History Graph

Daily Weather History Graph

Search for Another Location

Airport or City:

Astronomy

Aug. 24, 2019 Rise Set
Actual Time 6:41 AM MDT 8:16 PM MDT
Civil Twilight 6:11 AM MDT 8:47 PM MDT
Nautical Twilight 5:34 AM MDT 9:23 PM MDT
Astronomical Twilight 4:54 AM MDT 10:02 PM MDT
Moon 12:32 AM MDT (8/24) 3:42 PM MDT (8/24)
Length of Visible Light 14h 35m
Length of Day
13h 35m
Last Quarter, 38% of the Moon is Illuminated
Aug 24
Last Quarter
Aug 30
New
Sep 5
First Quarter
Sep 13
Full
Sep 21
Last Quarter

Hourly Weather History & Observations

Time (MDT) Temp. Dew Point Humidity Pressure Visibility Wind Dir Wind Speed Gust Speed Precip Events Conditions
12:53 AM 57.0 °F 45.0 °F 64% 29.92 in 10.0 mi NNE 4.6 mph - N/A   Clear
1:53 AM 55.0 °F 45.0 °F 69% 29.92 in 10.0 mi NNE 4.6 mph - N/A   Clear
2:53 AM 53.1 °F 45.0 °F 74% 29.93 in 10.0 mi Calm Calm - N/A   Clear
3:53 AM 53.1 °F 45.0 °F 74% 29.93 in 10.0 mi NNE 4.6 mph - N/A   Clear
4:53 AM 52.0 °F 45.0 °F 77% 29.93 in 10.0 mi North 3.5 mph - N/A   Clear
5:53 AM 52.0 °F 44.1 °F 74% 29.92 in 10.0 mi Calm Calm - N/A   Clear
6:53 AM 51.1 °F 44.1 °F 77% 29.94 in 10.0 mi Calm Calm - N/A   Clear
7:53 AM 53.1 °F 44.1 °F 71% 29.95 in 10.0 mi NNE 4.6 mph - N/A   Clear
8:53 AM 57.9 °F 44.1 °F 60% 29.97 in 10.0 mi Calm Calm - N/A   Clear
9:53 AM 66.0 °F 43.0 °F 43% 29.96 in 10.0 mi Variable 4.6 mph - N/A   Clear
10:53 AM 73.9 °F 37.0 °F 26% 29.94 in 10.0 mi South 12.7 mph - N/A   Clear
11:53 AM 75.9 °F 36.0 °F 23% 29.94 in 10.0 mi SSW 13.8 mph - N/A   Clear
12:53 PM 80.1 °F 36.0 °F 20% 29.91 in 10.0 mi SSW 13.8 mph 24.2 mph N/A   Clear
1:53 PM 80.1 °F 36.0 °F 20% 29.90 in 10.0 mi SW 13.8 mph 19.6 mph N/A   Clear
2:53 PM 82.9 °F 36.0 °F 19% 29.87 in 10.0 mi SSW 11.5 mph 21.9 mph N/A   Clear
3:53 PM 86.0 °F 37.9 °F 18% 29.84 in 10.0 mi SSW 12.7 mph 18.4 mph N/A   Clear
4:53 PM 84.9 °F 37.0 °F 18% 29.83 in 10.0 mi SSW 15.0 mph 20.7 mph N/A   Clear
5:53 PM 84.9 °F 37.0 °F 18% 29.80 in 10.0 mi South 16.1 mph 24.2 mph N/A   Clear
6:53 PM 82.9 °F 41.0 °F 23% 29.79 in 10.0 mi South 8.1 mph - N/A   Clear
7:53 PM 81.0 °F 37.9 °F 21% 29.78 in 10.0 mi SSW 11.5 mph - N/A   Clear
8:53 PM 75.9 °F 39.0 °F 26% 29.78 in 10.0 mi SSW 10.4 mph - N/A   Clear
9:53 PM 73.9 °F 39.9 °F 29% 29.78 in 10.0 mi SSW 6.9 mph - N/A   Clear
10:53 PM 73.9 °F 39.0 °F 28% 29.76 in 10.0 mi SW 11.5 mph - N/A   Clear
11:53 PM 72.0 °F 37.0 °F 28% 29.77 in 10.0 mi SSW 10.4 mph - N/A   Clear